COSMOS 252 DEB, 3557

Orbit data source: Space-Track

COSMOS 252 DEB, 3557 is space debris in LEO originally from a launch on Fri, 01 Nov 1968 UTC launched from the Tyuratam Missile And Space Complex (TTMTR). Debris objects in space refer to the collection of defunct objects orbiting the Earth. Examples of debris include non-operational satellites, rocket bodies, and fragments generated from explosions, collisions, or faulty payload assembly.

Loading next visibility...
Identifier
3557, 1968-097K
Orbit
LEO
Country
Flag of CISCIS
Related business
Manufacturer
Unknown
Mission
Spacecraft
Bus & Motor
Unknown
Mass
Unknown
Launch date (UTC)
1968-11-01 (57 years ago)
Launch vehicle
Unknown
Launch site
Tyuratam Missile And Space Complex (TTMTR)
Object type
Payload
Rocket body
Debris
Shape & HBR
Unknown shape, 0.2 m
Radar Cross Section
Small (<0.1 m²)

Expand to show TLE details & history
Last TLE update: 16 hours ago

TLE from 16 hours ago
0 COSMOS 252 DEB
1 03557U 68097K   26120.43883329  .00000061  00000-0  65663-4 0  9998
2 03557  62.3188  25.4534 0815110 239.6533 112.1450 13.24334586747887
Epoch: 2026-04-30T10:31Z
TLE epoch observation values (Epoch: 2026-04-30T10:31:55.196Z)
Latitude
0.00004°
Longitude
9.08801°
Altitude
1,442.703 km
Speed
7.011 km/s
True Right ascension
01h 41m 48s
True Declination
0° 00' 00"
Sunlit
Object was in daylight at epoch
Visualization orbit readout
Latitude
Unknown
Longitude
Unknown
Altitude
Unknown
Speed
Unknown
Apparent Right ascension
Unknown
Apparent Declination
Unknown
Sunlit
N/A
Visualization observer readout
Local Sidereal Time
10:24:57
Azimuth
Unknown
Elevation
Unknown
Doppler factor
Unknown
Orbital elements
Apogee altitude
1,782.2 km
Perigee altitude
552.148 km
Semi-major axis
7,545.311 km
Eccentricity
0.08151
Inclination
62.3188°
RAAN
25.4534°
Arg. of periapsis
239.6533°
True anomaly
120.44703°
Mean anomaly
112.145°
Eccentric anomaly
116.33069°
Mean motion
3.31152 °/min
Orbital period
108.71 mins
BSTAR
0.000065663
Loading maneuver chart data...
Computing Atmospheric mass density...
Loading historical data...
Loading historical data...
Loading historical data...
Loading historical data...
Loading historical data...
Loading historical data...
Loading historical data...

Documentation

Showing up to 5 results
|